sat.trackr.live / text

‹ back to catalog

ONEWEB-0642

NORAD 55806 · 2023-029L

PAYLOAD ACTIVE UNKNOWN

§ Identity

Operator
Country
UK
Launch date
2023-03-09
Launch site
AFETR
Launch vehicle
Mass (kg)
RCS (m²)

Purposes: comms

External: N2YO · Heavens-Above · Gunter

§ Orbital elements

Epoch: 2026-09-20T00:30:04.604832Z

Period
109.11 min
Inclination
87.9101°
Eccentricity
0.0001516
Mean motion
13.19725516 rev/d
Perigee alt
1,184.6 km
Apogee alt
1,186.9 km
Semi-major
7,563.9 km
B*
2.0517e-4
RAAN
286.0804°
Arg perigee
65.9836°
Mean anomaly
294.1455°
Rev number
17,141

§ Raw data

ONEWEB-06421 55806U 23029L   26263.02088663  .00000095  00000+0  20517-3 0  99932 55806  87.9101 286.0804 0001516  65.9836 294.1455 13.19725516171414

JSON: /api/v1/satellites/55806 · /tle

For live sub-satellite position, see the globe view (requires WebGL).

§ Visibility from observer

Set your observer location to see the next 7 days of passes ≥ 10°. The values pass through the URL so the page stays shareable.

No JS? Fill the form by hand. The geolocation button needs JavaScript.